[[{"header":{"parameterUnit":"m.s-1","parameterCategory":1,"la1":30.2991,"la2":30.254,"lo1":-89.0895,"lo2":-89.0444,"dy":0.0017,"dx":0.0017,"nx":28,"ny":28,"refTime":"2024-12-10T03:00:00:Z","depth":0,"parameterNumber":2,"parameterNumberName":"U-component_of_WINDS"},"data":[0,0,0,0,0,0,0,0,0,0,0,0,0,0,0,0,0,0,0,0,0,0,0,0,0,0,0,0,0,0,0,0,0,0,0,0,0,0,0,0,0,0,0,0,0,0,0,0,0,0,0,0,0,0,0,0,0,0,5.4454,5.4455,0,5.451,5.451,5.4511,5.4445,5.4443,5.4441,5.4438,5.4493,5.4496,5.45,0,0,0,0,0,0,0,0,0,0,0,0,0,5.4291,5.4295,5.4454,5.4455,5.4456,5.451,5.451,5.4511,5.4446,5.4443,5.444,5.4437,5.4491,5.4496,5.45,0,0,0,0,0,0,0,0,0,0,0,0,0,5.4356,5.4296,5.4454,5.443,5.4428,5.4509,5.451,5.4511,5.4446,5.4443,5.4439,5.4436,5.449,5.4495,5.4501,5.4608,0,0,5.4518,5.452,0,0,0,0,0,0,0,0,5.4352,5.4362,5.4433,5.4432,5.443,5.4467,5.4473,5.4544,5.4447,5.4439,5.4438,5.4434,5.4487,5.4492,5.4511,5.4611,5.4613,5.4518,5.4522,5.4524,5.4526,0,0,0,0,0,0,0,5.4348,5.4359,5.4476,5.4434,5.4432,5.4416,5.4421,5.4486,5.4483,5.444,5.4435,5.4443,5.4485,5.4506,5.4512,5.4614,5.4518,5.4523,5.4527,5.4529,5.4806,5.481,0,0,0,0,0,0,5.4347,5.4356,5.4474,5.4478,5.4381,5.4422,5.4427,5.4459,5.4482,5.4482,5.4446,5.444,5.4498,5.4505,5.4513,5.4641,5.4524,5.4529,5.4532,5.4802,5.4807,5.4812,0,0,0,0,0,0,5.4343,5.4358,5.4472,5.4416,5.4429,5.4428,5.4464,5.4462,5.4482,5.4487,5.4485,5.4467,5.4495,5.4505,5.4586,5.4642,5.4532,5.4537,5.4798,5.4804,5.481,5.4898,0,0,0,0,0,0,5.4339,5.4357,5.4398,5.4417,5.4432,5.4544,5.4468,5.4465,5.4492,5.4484,5.4506,5.4506,5.4493,5.4578,5.4591,5.4648,5.4541,5.4793,5.48,5.4808,5.489,5.4906,5.492,0,0,0,0,0,5.4333,5.442,5.44,5.4415,5.4483,5.4547,5.4556,5.454,5.4497,5.4538,5.4541,5.4506,5.4634,5.4586,5.4601,5.466,5.4789,5.4798,5.4807,5.4883,5.4903,5.492,0,0,0,0,0,0,5.4405,5.4422,5.44,5.4495,5.4521,5.4536,5.4587,5.4561,5.4598,5.459,5.4567,5.4573,5.4659,5.4667,5.4614,5.4766,5.4704,5.4717,5.4757,5.4776,5.4791,5.4787,5.4546,0,0,0,0,0,5.4433,5.4484,5.4495,5.4578,5.4592,5.4588,5.4615,5.4601,5.4626,5.4636,5.4645,5.467,5.4716,5.4747,5.4789,5.4891,5.4896,5.494,5.4955,5.4967,5.4978,5.5034,5.5054,5.4841,5.4841,5.4841,0,0,5.4489,5.4504,5.4538,5.4593,5.4611,5.4664,5.4597,5.4656,5.4695,5.4644,5.4721,5.4729,5.4756,5.4848,5.4889,5.4858,5.5038,5.4979,5.4989,5.4993,5.5045,5.5065,5.5083,5.4848,5.4847,5.4846,0,0,5.4619,5.4636,5.4707,5.4727,5.4756,5.4753,5.477,5.479,5.4794,5.4871,5.4834,5.4881,5.496,5.4981,5.5002,5.5143,5.5112,5.5158,5.5237,5.5291,5.5308,5.5323,5.5373,5.5392,5.5169,5.5169,5.5169,0,5.4685,5.4764,5.4747,5.4809,5.4835,5.4793,5.4866,5.4885,5.4926,5.4945,5.491,5.5011,5.5025,5.5122,5.5157,5.5175,5.5195,5.5155,5.5307,5.5322,5.5335,5.5383,5.5402,5.5174,5.5174,5.5173,5.5173,0,5.4845,5.49,5.4955,5.4997,5.5029,5.5096,5.5089,5.5123,5.5107,5.5108,5.5187,5.5204,5.525,5.5272,5.5256,5.5368,5.5348,5.5311,5.5248,5.5361,5.5406,5.5424,5.5182,5.518,5.5178,5.5177,0,0,5.5019,5.5053,5.5073,5.5093,5.5122,5.5165,5.5231,5.5277,5.5307,5.5337,5.5392,5.5462,5.5428,5.5452,5.5438,5.5486,5.5598,5.5443,5.5444,5.5472,5.5723,5.5751,5.5772,5.5578,5.5581,5.5584,5.5721,0,5.515,5.5265,5.5252,5.5361,5.5413,5.5375,5.5432,5.5457,5.546,5.5504,5.5507,5.5558,5.5509,5.5524,5.557,5.5575,5.5648,5.5565,5.5628,5.5631,5.5623,5.5795,5.5824,5.5952,5.5738,5.5741,5.5743,0,5.5317,5.5355,5.547,5.5493,5.5515,5.5567,5.5609,5.5652,5.5679,5.5678,5.5707,5.5685,5.5751,5.5688,5.5779,5.5723,5.5748,5.5755,5.576,5.5764,5.5693,5.5805,5.5992,5.6012,5.577,5.5768,5.5766,0,5.5434,5.5514,5.5593,5.5611,5.564,5.5677,5.5691,5.5715,5.5744,5.5781,5.58,5.5844,5.5868,5.5902,5.5893,5.5848,5.5987,5.5923,5.5988,5.5988,5.6018,5.6016,5.6212,5.6035,5.6035,5.6035,5.6034,0,5.5581,5.5653,5.5646,5.5695,5.5775,5.576,5.5839,5.5848,5.587,5.592,5.5889,5.5937,5.5922,5.5969,5.5962,5.6039,5.605,5.6051,5.6049,5.6054,5.6054,5.607,5.606,5.604,5.6039,5.6038,5.6037,0,5.5724,5.5723,5.5807,5.5828,5.5836,5.5893,5.5912,5.5958,5.5959,5.6023,5.6037,5.604,5.6093,5.6088,5.6148,5.6143,5.6239,5.6226,5.623,5.6227,5.6293,5.6287,5.6506,5.6534,5.6339,5.6341,5.6342,0,5.5818,5.5873,5.5901,5.5933,5.5949,5.6001,5.6031,5.6019,5.6052,5.6088,5.613,5.6182,5.6222,5.631,5.6317,5.6363,5.635,5.6424,5.6357,5.6361,5.6351,5.6348,5.6354,5.6437,5.6439,5.6441,5.6442,0,5.5985,5.5982,5.6027,5.6073,5.611,5.6145,5.6177,5.6204,5.6196,5.6234,5.6289,5.6321,5.6383,5.6435,5.6479,5.6492,5.6467,5.6464,5.6481,5.6487,5.6487,5.6488,5.6266,5.6458,5.6457,5.6455,5.6455,5.6454,5.6106,5.6153,5.6181,5.6233,5.6256,5.6287,5.6332,5.634,5.6386,5.6437,5.6427,5.6489,5.6517,5.6573,5.6592,5.6641,5.6614,5.6639,5.6645,5.6652,5.666,5.648,5.6649,5.6648,5.6648,5.6647,5.6647,0,5.6271,5.6288,5.6336,5.6382,5.6423,5.6396,5.6431,5.6467,5.6522,5.6551,5.6592,5.6656,5.6706,5.6718,5.6766,5.6803,5.6792,5.6816,5.6813,5.6817,5.6681,5.6661,5.6824,5.6824,5.6824,5.6824,5.6824,5.6824,5.6362,5.6441,5.6442,5.6532,5.6548,5.661,5.6632,5.6661,5.6683,5.6757,5.6799,5.6807,5.6829,5.6879,5.6924,5.6926,5.6945,5.6974,5.6972,5.6844,5.6826,5.6809,5.679,5.6978,5.6979,5.7104,5.7105,5.7106]},{"header":{"parameterUnit":"m.s-1","parameterCategory":1,"la1":30.2991,"la2":30.254,"lo1":-89.0895,"lo2":-89.0444,"dy":0.0017,"dx":0.0017,"nx":28,"ny":28,"refTime":"2024-12-10T03:00:00:Z","depth":0,"parameterNumber":3,"parameterNumberName":"V-component_of_WINDS"},"data":[0,0,0,0,0,0,0,0,0,0,0,0,0,0,0,0,0,0,0,0,0,0,0,0,0,0,0,0,0,0,0,0,0,0,0,0,0,0,0,0,0,0,0,0,0,0,0,0,0,0,0,0,0,0,0,0,0,0,-7.7186,-7.7188,0,-7.7356,-7.7358,-7.7359,-7.7311,-7.7307,-7.7304,-7.73,-7.747,-7.7478,-7.7485,0,0,0,0,0,0,0,0,0,0,0,0,0,-7.6817,-7.6824,-7.7186,-7.7188,-7.719,-7.7355,-7.7358,-7.736,-7.7311,-7.7307,-7.7303,-7.7299,-7.7468,-7.7477,-7.7486,0,0,0,0,0,0,0,0,0,0,0,0,0,-7.6981,-7.6826,-7.7185,-7.7186,-7.7187,-7.7355,-7.7358,-7.7361,-7.7312,-7.7307,-7.7302,-7.7297,-7.7465,-7.7476,-7.7487,-7.7663,0,0,-7.7523,-7.7528,0,0,0,0,0,0,0,0,-7.6971,-7.6994,-7.7184,-7.7186,-7.7188,-7.7307,-7.729,-7.7462,-7.7313,-7.7265,-7.73,-7.7294,-7.742,-7.7435,-7.7478,-7.7671,-7.7679,-7.7524,-7.7531,-7.7536,-7.7539,0,0,0,0,0,0,0,-7.696,-7.6987,-7.7253,-7.7186,-7.7189,-7.7177,-7.7194,-7.7322,-7.7369,-7.7269,-7.7265,-7.7286,-7.742,-7.7467,-7.7481,-7.7681,-7.7524,-7.7534,-7.7541,-7.7546,-7.8029,-7.8035,0,0,0,0,0,0,-7.6948,-7.6978,-7.7247,-7.7258,-7.7065,-7.7187,-7.7207,-7.7274,-7.7368,-7.7377,-7.7291,-7.7283,-7.7449,-7.7468,-7.7487,-7.7701,-7.7536,-7.7547,-7.7553,-7.8023,-7.803,-7.8037,0,0,0,0,0,0,-7.694,-7.6972,-7.7241,-7.7117,-7.715,-7.7199,-7.7275,-7.728,-7.7327,-7.7385,-7.7392,-7.733,-7.7446,-7.7471,-7.7621,-7.7706,-7.7552,-7.7563,-7.8016,-7.8026,-7.8034,-7.8129,0,0,0,0,0,0,-7.6929,-7.697,-7.7038,-7.7119,-7.7157,-7.7372,-7.728,-7.7287,-7.7347,-7.734,-7.7424,-7.7432,-7.7444,-7.7604,-7.7632,-7.7719,-7.7572,-7.8009,-7.8021,-7.8031,-7.8118,-7.814,-7.8158,0,0,0,0,0,-7.6916,-7.7056,-7.7041,-7.7074,-7.7243,-7.7377,-7.7399,-7.7411,-7.7355,-7.7423,-7.746,-7.743,-7.7692,-7.7619,-7.7651,-7.7743,-7.8004,-7.8017,-7.803,-7.8109,-7.8135,-7.8158,0,0,0,0,0,0,-7.6982,-7.7067,-7.7051,-7.7222,-7.7293,-7.7369,-7.7455,-7.7438,-7.7525,-7.7514,-7.7523,-7.7543,-7.7697,-7.7734,-7.7652,-7.7919,-7.7839,-7.786,-7.7889,-7.7914,-7.7934,-7.7921,-7.7581,0,0,0,0,0,-7.7017,-7.7119,-7.7187,-7.7331,-7.7368,-7.7406,-7.7465,-7.7468,-7.7541,-7.7571,-7.7619,-7.769,-7.7789,-7.7853,-7.7947,-7.8123,-7.8141,-7.8202,-7.8222,-7.8238,-7.8256,-7.8353,-7.8381,-7.808,-7.808,-7.808,0,0,-7.7088,-7.7148,-7.7211,-7.7346,-7.7402,-7.7507,-7.7431,-7.7546,-7.7625,-7.7587,-7.7733,-7.7771,-7.7851,-7.8015,-7.809,-7.8052,-7.8343,-7.8255,-7.8267,-7.8276,-7.8369,-7.8398,-7.8423,-7.8089,-7.8087,-7.8086,0,0,-7.7274,-7.7329,-7.7455,-7.7513,-7.7599,-7.7623,-7.7654,-7.7734,-7.7758,-7.7904,-7.7879,-7.7972,-7.8141,-7.82,-7.8252,-7.8462,-7.8437,-7.8492,-7.8596,-7.8691,-7.8714,-7.8735,-7.8811,-7.8838,-7.8509,-7.8509,-7.8509,0,-7.7352,-7.7511,-7.7522,-7.764,-7.7701,-7.7674,-7.7802,-7.7857,-7.7969,-7.801,-7.7966,-7.818,-7.8232,-7.841,-7.8462,-7.8504,-7.8539,-7.8482,-7.871,-7.8732,-7.8751,-7.8824,-7.8852,-7.8515,-7.8515,-7.8514,-7.8513,0,-7.7604,-7.7715,-7.7807,-7.7917,-7.7988,-7.811,-7.8139,-7.8209,-7.8206,-7.8235,-7.8385,-7.8447,-7.8554,-7.8596,-7.8593,-7.8775,-7.8748,-7.8708,-7.8628,-7.8786,-7.8854,-7.8882,-7.8524,-7.8522,-7.852,-7.8519,0,0,-7.7834,-7.7951,-7.7985,-7.8035,-7.8128,-7.8214,-7.8335,-7.8441,-7.8501,-7.8579,-7.8681,-7.8826,-7.879,-7.8849,-7.8853,-7.8936,-7.91,-7.8885,-7.8887,-7.8923,-7.9304,-7.9335,-7.9367,-7.9084,-7.9089,-7.9093,-7.9298,0,-7.8028,-7.8243,-7.8258,-7.8452,-7.8555,-7.8532,-7.8638,-7.8706,-7.8737,-7.8828,-7.8861,-7.8964,-7.8908,-7.8943,-7.9025,-7.9063,-7.9176,-7.9048,-7.9179,-7.9183,-7.916,-7.9402,-7.9435,-7.9624,-7.9324,-7.9329,-7.9332,0,-7.8283,-7.8371,-7.8576,-7.8657,-7.8701,-7.8796,-7.8895,-7.8982,-7.906,-7.9076,-7.9144,-7.9136,-7.926,-7.9177,-7.9348,-7.926,-7.9315,-7.9341,-7.9349,-7.9362,-7.9267,-7.9422,-7.9685,-7.9714,-7.9374,-7.937,-7.9367,0,-7.8432,-7.8602,-7.8747,-7.879,-7.8888,-7.8955,-7.8999,-7.9071,-7.9134,-7.922,-7.9262,-7.936,-7.9415,-7.9491,-7.9511,-7.9448,-7.9682,-7.96,-7.9699,-7.9699,-7.975,-7.9746,-8.0026,-7.9784,-7.9784,-7.9783,-7.9782,0,-7.8648,-7.8774,-7.8815,-7.8905,-7.9046,-7.9061,-7.92,-7.9239,-7.9304,-7.94,-7.9385,-7.9475,-7.9496,-7.959,-7.9606,-7.9746,-7.977,-7.9786,-7.9789,-7.9788,-7.9786,-7.9824,-7.9812,-7.9791,-7.9789,-7.9787,-7.9786,0,-7.8838,-7.887,-7.9027,-7.9107,-7.913,-7.9231,-7.9299,-7.9384,-7.9414,-7.9536,-7.9565,-7.9611,-7.9721,-7.9748,-7.9879,-7.989,-8.0056,-8.0045,-8.003,-8.003,-8.0128,-8.0119,-8.0442,-8.0486,-8.0215,-8.0217,-8.022,0,-7.8973,-7.9071,-7.9162,-7.9226,-7.9273,-7.9376,-7.9441,-7.946,-7.9528,-7.9625,-7.9699,-7.9808,-7.9896,-8.0073,-8.0117,-8.0218,-8.021,-8.0317,-8.0225,-8.0222,-8.0213,-8.0207,-8.0217,-8.0334,-8.0337,-8.0339,-8.0341,0,-7.9211,-7.9223,-7.9318,-7.942,-7.9499,-7.958,-7.9657,-7.971,-7.9739,-7.9817,-7.993,-7.9999,-8.0134,-8.0242,-8.0344,-8.0387,-8.037,-8.037,-8.0398,-8.0399,-8.0386,-8.0395,-8.0079,-8.0362,-8.036,-8.0359,-8.0357,-8.0357,-7.9379,-7.9465,-7.9543,-7.965,-7.971,-7.9783,-7.9868,-7.9909,-8.0005,-8.0117,-8.0122,-8.0246,-8.0321,-8.0456,-8.0506,-8.0602,-8.057,-8.0611,-8.0621,-8.0632,-8.0641,-8.0371,-8.0621,-8.062,-8.062,-8.0619,-8.0619,0,-7.9617,-7.9666,-7.9765,-7.9874,-7.9959,-7.9936,-8.0021,-8.0093,-8.0202,-8.0275,-8.0363,-8.0494,-8.0599,-8.0653,-8.0757,-8.0824,-8.0819,-8.0851,-8.0847,-8.0857,-8.0663,-8.0629,-8.0854,-8.0854,-8.0854,-8.0854,-8.0854,-8.0854,-7.975,-7.9895,-7.9917,-8.0091,-8.0139,-8.0262,-8.0312,-8.038,-8.0438,-8.0586,-8.0674,-8.0709,-8.0774,-8.0883,-8.0979,-8.0992,-8.1031,-8.1068,-8.1077,-8.0895,-8.0871,-8.0848,-8.0815,-8.1076,-8.1077,-8.1263,-8.1265,-8.1266]}]]